DW9979 Weather Reports


Display with metric or nautical units.
time (UTC)temp
F
wind
direction
speed
MPH
gust
MPH
rain 1hr
in
rain 24hr
in
rain mn
in
humidity
%
barometer
mb
20190219091305 7 231 1.0 3.0 0.00 0.16 0.00 86 1031.8
20190219090806 7 231 1.0 3.0 0.00 0.16 0.00 86 1031.8
20190219090306 7 231 1.0 3.0 0.00 0.16 0.00 86 1031.8
20190219085806 7 231 0.0 2.0 0.00 0.16 0.00 87 1031.9
20190219085306 7 231 0.0 2.0 0.00 0.16 0.00 87 1031.9
20190219084805 8 231 0.0 2.0 0.00 0.16 0.00 86 1031.8
20190219084305 8 231 0.0 3.0 0.00 0.16 0.00 86 1031.7
20190219083806 8 231 1.0 3.0 0.00 0.16 0.00 87 1031.8
20190219083306 8 231 1.0 3.0 0.00 0.16 0.00 87 1031.9
20190219082806 8 231 1.0 3.0 0.00 0.16 0.00 87 1031.9
20190219082306 8 230 0.0 2.0 0.00 0.16 0.00 87 1032.0
20190219081806 8 230 0.0 0.0 0.00 0.16 0.00 86 1032.1
20190219081306 8 230 0.0 2.0 0.00 0.16 0.00 86 1032.1
20190219080806 8 230 0.0 3.0 0.00 0.16 0.00 86 1032.2
20190219080305 9 230 1.0 3.0 0.00 0.16 0.00 86 1032.1
20190219075806 9 230 1.0 3.0 0.00 0.16 0.00 86 1032.1
20190219075306 9 230 1.0 1.0 0.00 0.16 0.00 86 1032.1
20190219074806 9 230 0.0 0.0 0.00 0.16 0.00 86 1032.1
20190219074306 9 230 0.0 0.0 0.00 0.16 0.00 86 1032.2
20190219073806 9 230 0.0 0.0 0.00 0.16 0.00 86 1032.2
20190219073305 10 230 0.0 0.0 0.00 0.16 0.00 86 1032.2
20190219072806 10 230 0.0 0.0 0.00 0.16 0.00 86 1032.2
20190219072306 10 230 0.0 0.0 0.00 0.16 0.00 85 1032.1
20190219071806 10 230 0.0 0.0 0.00 0.16 0.00 85 1032.0
20190219071306 10 230 0.0 0.0 0.00 0.16 0.00 85 1032.1
20190219070806 10 230 0.0 0.0 0.00 0.16 0.00 85 1032.2
20190219070306 11 230 0.0 0.0 0.00 0.16 0.00 85 1032.1
20190219065806 11 230 0.0 0.0 0.00 0.16 0.00 85 1032.2
20190219065306 11 230 0.0 0.0 0.00 0.16 0.00 85 1032.2
20190219064805 11 230 0.0 0.0 0.00 0.16 0.00 85 1032.3
20190219064305 12 230 0.0 0.0 0.00 0.16 0.00 85 1032.3
20190219063805 12 230 0.0 0.0 0.00 0.16 0.00 85 1032.3
20190219063305 12 230 0.0 1.0 0.00 0.16 0.00 85 1032.2
20190219062805 13 230 0.0 2.0 0.00 0.16 0.00 85 1032.2
20190219062305 13 230 0.0 2.0 0.00 0.16 0.00 86 1032.1
20190219061806 13 230 0.0 2.0 0.00 0.16 0.00 86 1032.2
20190219061306 13 230 0.0 2.0 0.00 0.16 0.00 86 1032.1
20190219060806 12 230 0.0 2.0 0.00 0.16 0.00 85 1032.0
20190219060306 13 230 0.0 2.0 0.00 0.16 0.16 84 1032.0
20190219055805 13 230 0.0 3.0 0.00 0.16 0.16 84 1032.0
20190219055305 13 230 0.0 3.0 0.00 0.16 0.16 84 1032.0
20190219054806 13 230 1.0 3.0 0.00 0.16 0.16 84 1032.0
20190219054306 13 230 1.0 2.0 0.00 0.16 0.16 84 1032.0
20190219053805 13 230 0.0 2.0 0.00 0.16 0.16 84 1032.0
20190219053305 14 230 1.0 2.0 0.00 0.16 0.16 84 1031.8
20190219052806 14 230 1.0 2.0 0.00 0.16 0.16 83 1031.8
20190219052306 14 230 0.0 2.0 0.00 0.16 0.16 83 1031.8
20190219051806 14 230 0.0 1.0 0.00 0.16 0.16 83 1031.9
20190219051306 15 230 0.0 1.0 0.00 0.16 0.16 82 1031.9
20190219050806 15 230 0.0 1.0 0.00 0.16 0.16 82 1031.9
20190219050305 15 230 0.0 2.0 0.00 0.16 0.16 81 1031.9
20190219045806 15 230 0.0 2.0 0.00 0.16 0.16 81 1032.0
20190219045305 15 230 1.0 2.0 0.00 0.16 0.16 81 1032.0
20190219044806 16 230 0.0 2.0 0.00 0.16 0.16 81 1032.0
20190219044306 16 230 1.0 3.0 0.00 0.16 0.16 81 1032.0
20190219043805 16 230 1.0 3.0 0.00 0.16 0.16 82 1032.1
20190219043306 16 230 2.0 4.0 0.00 0.16 0.16 81 1032.0
20190219042806 16 230 1.0 4.0 0.00 0.16 0.16 81 1032.1
20190219042306 16 230 1.0 4.0 0.00 0.16 0.16 81 1032.1
20190219041806 16 229 1.0 4.0 0.00 0.16 0.16 81 1032.2
20190219041306 17 230 2.0 4.0 0.00 0.16 0.16 81 1032.2
20190219040805 17 230 2.0 4.0 0.00 0.16 0.16 81 1032.3
20190219040306 17 229 1.0 4.0 0.00 0.16 0.16 81 1032.3
20190219035806 17 219 1.0 4.0 0.00 0.16 0.16 81 1032.2
20190219035306 17 219 1.0 3.0 0.00 0.16 0.16 81 1032.2
20190219034806 17 219 1.0 3.0 0.00 0.16 0.16 80 1032.2
20190219034306 17 219 1.0 3.0 0.00 0.16 0.16 80 1032.2
20190219033806 17 219 1.0 3.0 0.00 0.16 0.16 79 1032.2
20190219033306 18 219 2.0 3.0 0.00 0.16 0.16 81 1032.1
20190219032806 18 219 1.0 4.0 0.00 0.16 0.16 81 1032.2
20190219032305 17 219 2.0 4.0 0.00 0.16 0.16 80 1032.1
20190219031805 17 219 3.0 4.0 0.00 0.16 0.16 79 1032.1
20190219031305 18 216 2.0 4.0 0.00 0.16 0.16 79 1032.0
20190219030805 18 213 2.0 4.0 0.00 0.16 0.16 79 1032.1
20190219030306 18 213 2.0 4.0 0.00 0.16 0.16 79 1032.0
20190219025806 18 213 1.0 4.0 0.00 0.16 0.16 79 1032.0
20190219025305 19 213 1.0 5.0 0.00 0.16 0.16 78 1032.1
20190219024805 19 213 1.0 5.0 0.00 0.16 0.16 79 1032.1
20190219024306 19 212 2.0 5.0 0.00 0.16 0.16 79 1032.1
20190219023806 19 208 2.0 4.0 0.00 0.16 0.16 79 1032.1
20190219023306 19 208 1.0 3.0 0.00 0.16 0.16 79 1032.0
20190219022806 19 208 0.0 4.0 0.00 0.16 0.16 78 1031.9
20190219022305 19 208 1.0 5.0 0.00 0.16 0.16 78 1031.9
20190219021805 20 208 2.0 5.0 0.00 0.16 0.16 78 1031.8
20190219021305 20 208 2.0 5.0 0.00 0.16 0.16 78 1031.8
20190219020806 20 207 2.0 5.0 0.00 0.16 0.16 78 1031.7
20190219020306 20 211 3.0 6.0 0.00 0.16 0.16 78 1031.6
20190219015806 20 210 3.0 6.0 0.00 0.16 0.16 78 1031.5
20190219015305 20 220 3.0 5.0 0.00 0.16 0.16 78 1031.7
20190219014805 21 220 1.0 4.0 0.00 0.16 0.16 77 1031.5
20190219014306 21 221 1.0 2.0 0.00 0.16 0.16 77 1031.6
20190219013807 21 221 0.0 4.0 0.00 0.16 0.16 77 1031.5
20190219013306 21 220 0.0 4.0 0.00 0.16 0.16 77 1031.4
20190219012806 21 220 1.0 4.0 0.00 0.16 0.16 77 1031.4
20190219012305 21 220 1.0 3.0 0.00 0.16 0.16 77 1031.4
20190219011806 22 220 1.0 3.0 0.00 0.16 0.16 77 1031.3
20190219011306 22 220 2.0 3.0 0.00 0.16 0.16 76 1031.3
20190219010805 22 220 2.0 3.0 0.00 0.16 0.16 76 1031.2
20190219010305 22 220 1.0 3.0 0.00 0.16 0.16 75 1031.2
20190219005806 22 220 1.0 4.0 0.00 0.16 0.16 75 1031.2
20190219005306 23 221 1.0 4.0 0.00 0.16 0.16 74 1031.2
20190219004805 23 221 1.0 4.0 0.00 0.16 0.16 74 1031.1
20190219004306 23 221 1.0 5.0 0.00 0.16 0.16 73 1031.1
20190219003806 24 225 1.0 5.0 0.00 0.16 0.16 73 1030.9
20190219003305 24 225 2.0 5.0 0.00 0.16 0.16 73 1030.9
20190219002806 24 250 2.0 7.0 0.00 0.16 0.16 73 1030.8
20190219002305 24 254 1.0 7.0 0.00 0.16 0.16 72 1030.8
20190219001806 24 254 2.0 7.0 0.00 0.16 0.16 72 1030.6
20190219001305 24 278 2.0 6.0 0.00 0.16 0.16 72 1030.6
20190219000806 24 244 1.0 5.0 0.00 0.16 0.16 72 1030.6
20190219000305 25 222 1.0 6.0 0.00 0.16 0.16 72 1030.5
20190218235805 25 222 2.0 6.0 0.00 0.16 0.16 71 1030.4
20190218235306 25 219 2.0 6.0 0.00 0.16 0.16 70 1030.4
20190218234807 25 217 1.0 5.0 0.00 0.16 0.16 70 1030.3
20190218234306 26 232 1.0 6.0 0.00 0.16 0.16 70 1030.1
20190218233806 26 232 1.0 6.0 0.00 0.16 0.16 70 1030.1
20190218233305 26 232 1.0 6.0 0.00 0.16 0.16 69 1030.1
20190218232806 26 232 1.0 5.0 0.00 0.16 0.16 69 1030.1
20190218232306 26 232 1.0 6.0 0.00 0.16 0.16 68 1030.0
20190218231807 26 232 2.0 6.0 0.00 0.16 0.16 68 1029.9
20190218231306 27 232 3.0 6.0 0.00 0.16 0.16 67 1030.0
20190218230806 27 246 2.0 6.0 0.00 0.16 0.16 65 1029.9
20190218230305 28 355 1.0 6.0 0.00 0.16 0.16 63 1029.7
20190218225805 28 287 1.0 6.0 0.00 0.16 0.16 63 1029.7
20190218225306 28 259 1.0 4.0 0.00 0.16 0.16 63 1029.7
20190218224806 28 298 1.0 3.0 0.00 0.16 0.16 64 1029.6
20190218224306 28 347 1.0 5.0 0.00 0.16 0.16 64 1029.6
20190218223806 28 14 1.0 5.0 0.00 0.16 0.16 63 1029.6
20190218223305 28 345 1.0 7.0 0.00 0.16 0.16 63 1029.4
20190218222806 28 21 2.0 7.0 0.01 0.16 0.16 63 1029.3
20190218222306 28 5 3.0 7.0 0.01 0.16 0.16 62 1029.3
20190218221806 29 28 2.0 5.0 0.01 0.16 0.16 60 1029.4
20190218221306 30 348 0.0 4.0 0.01 0.16 0.16 61 1029.5
20190218220806 30 290 0.0 4.0 0.01 0.16 0.16 61 1029.4
20190218220306 30 293 0.0 5.0 0.01 0.16 0.16 62 1029.6
20190218215805 30 322 1.0 6.0 0.01 0.16 0.16 62 1029.4
20190218215305 30 336 1.0 6.0 0.01 0.16 0.16 63 1029.4
20190218214806 29 15 1.0 8.0 0.01 0.16 0.16 61 1029.3
20190218214306 30 35 1.0 8.0 0.01 0.16 0.16 62 1029.4
20190218213806 30 5 1.0 8.0 0.01 0.16 0.16 62 1029.3
20190218213305 30 23 1.0 6.0 0.01 0.16 0.16 62 1029.3
20190218212805 30 290 2.0 8.0 0.00 0.15 0.15 63 1029.4
20190218212305 29 288 2.0 8.0 0.00 0.15 0.15 62 1029.4
20190218211806 30 355 1.0 5.0 0.00 0.15 0.15 61 1029.3
20190218211306 30 318 1.0 5.0 0.01 0.15 0.15 62 1029.5
20190218210806 30 304 1.0 5.0 0.01 0.15 0.15 61 1029.3
20190218210305 29 298 1.0 6.0 0.01 0.15 0.15 62 1029.2
20190218205805 29 297 1.0 6.0 0.01 0.15 0.15 62 1029.2
20190218205306 29 234 2.0 6.0 0.01 0.15 0.15 62 1029.2
20190218204805 29 281 2.0 6.0 0.01 0.15 0.15 62 1029.2
20190218204306 29 274 1.0 8.0 0.02 0.15 0.15 63 1029.1
20190218203805 28 306 2.0 10.0 0.02 0.15 0.15 64 1029.1
20190218203305 28 286 3.0 10.0 0.02 0.15 0.15 64 1029.1
20190218202806 27 259 5.0 10.0 0.02 0.15 0.15 63 1029.0
20190218202306 27 281 5.0 10.0 0.02 0.15 0.15 61 1029.1
20190218201805 28 279 5.0 10.0 0.02 0.15 0.15 63 1029.1
20190218201306 28 296 4.0 10.0 0.01 0.14 0.14 62 1029.1
20190218200806 29 267 4.0 10.0 0.01 0.14 0.14 64 1029.2
20190218200306 30 291 3.0 10.0 0.01 0.14 0.14 61 1029.1
20190218195806 30 227 2.0 7.0 0.02 0.14 0.14 64 1029.3
20190218195306 30 225 1.0 5.0 0.02 0.14 0.14 62 1029.3
20190218194806 30 15 0.0 5.0 0.02 0.14 0.14 64 1029.2
20190218194306 30 258 0.0 5.0 0.01 0.13 0.13 65 1029.2
20190218193805 30 258 1.0 5.0 0.01 0.13 0.13 65 1029.1
20190218193306 29 317 1.0 6.0 0.01 0.13 0.13 68 1029.2
20190218192806 28 311 1.0 7.0 0.01 0.13 0.13 66 1029.0
20190218192306 28 350 2.0 7.0 0.02 0.13 0.13 65 1028.9
20190218191806 28 279 2.0 7.0 0.02 0.13 0.13 66 1028.8
20190218191306 28 329 2.0 7.0 0.02 0.13 0.13 66 1028.7
20190218190805 28 321 2.0 7.0 0.02 0.13 0.13 66 1028.5
20190218190306 28 290 1.0 7.0 0.01 0.12 0.12 68 1028.5
20190218185806 27 327 3.0 7.0 0.02 0.12 0.12 67 1028.4
20190218185306 27 236 3.0 7.0 0.02 0.12 0.12 67 1028.3
20190218184806 27 348 2.0 7.0 0.03 0.12 0.12 67 1028.3
20190218184306 27 9 2.0 7.0 0.03 0.12 0.12 68 1028.3
20190218183805 27 341 3.0 7.0 0.04 0.12 0.12 68 1028.3
20190218183306 27 331 3.0 7.0 0.04 0.12 0.12 68 1028.3
20190218182806 27 355 3.0 6.0 0.05 0.12 0.12 68 1028.2
20190218182305 27 288 2.0 6.0 0.05 0.11 0.11 69 1028.3
20190218181806 27 351 2.0 6.0 0.05 0.11 0.11 72 1028.3
20190218181306 27 24 2.0 6.0 0.06 0.11 0.11 70 1028.1
20190218180805 27 17 2.0 6.0 0.07 0.11 0.11 69 1028.2
20190218180306 27 350 2.0 6.0 0.06 0.10 0.10 70 1028.2
20190218175806 27 177 1.0 6.0 0.07 0.10 0.10 71 1028.2
20190218175305 27 28 2.0 6.0 0.08 0.10 0.10 70 1028.2
20190218174806 27 303 2.0 9.0 0.07 0.09 0.09 71 1028.3
20190218174305 27 242 2.0 9.0 0.08 0.09 0.09 71 1028.2
20190218173805 27 0 2.0 5.0 0.07 0.08 0.08 70 1028.0
20190218173306 27 317 1.0 5.0 0.06 0.07 0.07 71 1028.1
20190218172806 27 313 1.0 5.0 0.06 0.07 0.07 72 1028.0
20190218172306 27 316 1.0 4.0 0.05 0.06 0.06 71 1028.0
20190218171806 26 13 1.0 4.0 0.04 0.05 0.05 72 1028.0
20190218171305 26 5 1.0 6.0 0.05 0.05 0.05 71 1028.1
20190218170806 26 348 1.0 6.0 0.04 0.04 0.04 71 1027.9
20190218170306 26 317 1.0 6.0 0.03 0.03 0.03 72 1027.8
20190218165805 26 317 1.0 4.0 0.03 0.03 0.03 73 1027.7
20190218165305 25 338 1.0 5.0 0.02 0.02 0.02 74 1027.4
20190218164806 25 341 2.0 5.0 0.02 0.02 0.02 73 1027.3
20190218164306 25 342 1.0 6.0 0.01 0.01 0.01 73 1027.2
20190218163805 25 298 1.0 6.0 0.01 0.01 0.01 75 1027.2
20190218163305 24 279 1.0 6.0 0.01 0.01 0.01 74 1027.1
20190218162806 24 279 1.0 5.0 0.01 0.01 0.01 75 1027.1
20190218162306 24 327 1.0 5.0 0.01 0.01 0.01 74 1027.0
20190218161805 24 329 1.0 5.0 0.01 0.01 0.01 75 1026.9
20190218161305 24 22 1.0 5.0 0.00 0.00 0.00 75 1026.8
20190218160805 24 276 1.0 7.0 0.00 0.00 0.00 77 1026.9
20190218160305 24 313 1.0 7.0 0.00 0.00 0.00 77 1026.6
20190218155806 24 313 2.0 6.0 0.00 0.00 0.00 76 1026.5
20190218155305 23 319 1.0 6.0 0.00 0.00 0.00 78 1026.5
20190218154805 23 320 1.0 6.0 0.00 0.00 0.00 78 1026.4
20190218154306 23 309 1.0 6.0 0.00 0.00 0.00 79 1026.2
20190218153805 23 299 2.0 6.0 0.00 0.00 0.00 79 1026.0
20190218153306 23 302 2.0 7.0 0.00 0.00 0.00 78 1025.9
20190218152806 23 355 2.0 7.0 0.00 0.00 0.00 79 1025.9
20190218152305 23 355 2.0 7.0 0.00 0.00 0.00 80 1025.7
20190218151805 22 316 2.0 6.0 0.00 0.00 0.00 81 1025.7
20190218151305 22 313 2.0 7.0 0.00 0.00 0.00 81 1025.7
20190218150806 22 308 3.0 7.0 0.00 0.00 0.00 82 1025.6
20190218150306 22 344 3.0 7.0 0.00 0.00 0.00 81 1025.5
20190218145805 22 310 3.0 6.0 0.00 0.00 0.00 82 1025.4
20190218145306 22 332 2.0 6.0 0.00 0.00 0.00 83 1025.2
20190218144805 21 309 2.0 7.0 0.00 0.00 0.00 84 1025.0
20190218144306 21 344 3.0 7.0 0.00 0.00 0.00 92 1025.0
20190218143806 21 333 3.0 7.0 0.00 0.00 0.00 84 1025.0
20190218143305 20 337 2.0 6.0 0.00 0.00 0.00 86 1024.8
20190218142805 20 277 3.0 7.0 0.00 0.00 0.00 85 1024.7
20190218142306 20 343 2.0 7.0 0.00 0.00 0.00 86 1024.4
20190218141806 20 313 3.0 7.0 0.00 0.00 0.00 86 1024.3
20190218141305 20 323 3.0 7.0 0.00 0.00 0.00 86 1024.2
20190218140805 20 288 3.0 7.0 0.00 0.00 0.00 86 1024.1
20190218140305 20 340 3.0 6.0 0.00 0.00 0.00 86 1024.0
20190218135806 20 22 3.0 6.0 0.00 0.00 0.00 86 1023.8
20190218135306 20 315 2.0 6.0 0.00 0.00 0.00 87 1023.8
20190218134806 20 0.0 0.0 0.00 0.00 0.00 87 1023.7
20190218125806 20 0.0 8.0 0.00 0.00 0.00 87 1068.3
20190218125306 20 321 3.0 8.0 0.00 0.00 0.00 87 1022.5
20190218124806 20 321 3.0 8.0 0.00 0.00 0.00 87 1022.3
20190218124306 20 23 3.0 9.0 0.00 0.00 0.00 87 1022.3
20190218123805 20 300 3.0 9.0 0.00 0.00 0.00 88 1022.2
20190218123306 20 261 4.0 9.0 0.00 0.00 0.00 88 1022.1
20190218122806 20 266 4.0 9.0 0.00 0.00 0.00 88 1022.1
20190218122306 20 342 4.0 8.0 0.00 0.00 0.00 88 1021.9
20190218121806 20 252 4.0 8.0 0.00 0.00 0.00 88 1021.8
20190218121306 20 340 4.0 10.0 0.00 0.00 0.00 88 1021.8
20190218120806 20 273 4.0 10.0 0.00 0.00 0.00 87 1021.7
20190218120306 20 0 4.0 8.0 0.00 0.00 0.00 88 1021.6
20190218115806 20 281 3.0 8.0 0.00 0.00 0.00 88 1021.6
20190218115306 20 319 4.0 8.0 0.00 0.00 0.00 88 1021.3
20190218114806 20 300 3.0 8.0 0.00 0.00 0.00 88 1021.2
20190218114306 20 296 3.0 8.0 0.00 0.00 0.00 88 1021.1
20190218113805 20 309 3.0 7.0 0.00 0.00 0.00 88 1020.9
20190218113305 20 321 3.0 6.0 0.00 0.00 0.00 88 1020.8
20190218112805 20 25 2.0 7.0 0.00 0.00 0.00 88 1020.8
20190218112306 20 312 3.0 7.0 0.00 0.00 0.00 88 1020.8
20190218111806 21 309 2.0 6.0 0.00 0.00 0.00 88 1020.7
20190218111306 21 323 2.0 9.0 0.00 0.00 0.00 88 1020.7
20190218110805 21 294 3.0 9.0 0.00 0.00 0.00 88 1020.6
20190218110306 21 330 3.0 9.0 0.00 0.00 0.00 88 1020.6
20190218105806 21 280 3.0 8.0 0.00 0.00 0.00 88 1020.4
20190218105306 21 306 3.0 8.0 0.00 0.00 0.00 88 1020.3
20190218104805 21 307 3.0 8.0 0.00 0.00 0.00 88 1020.2
20190218104306 21 318 3.0 7.0 0.00 0.00 0.00 88 1020.1
20190218103805 21 347 3.0 8.0 0.00 0.00 0.00 88 1020.0
20190218103305 21 335 3.0 8.0 0.00 0.00 0.00 88 1019.9
20190218102806 21 292 3.0 8.0 0.00 0.00 0.00 88 1019.8
20190218102305 21 355 3.0 8.0 0.00 0.00 0.00 88 1019.7
20190218101806 21 292 3.0 8.0 0.00 0.00 0.00 88 1019.6
20190218101306 21 270 3.0 8.0 0.00 0.00 0.00 88 1019.5
20190218100806 21 306 3.0 8.0 0.00 0.00 0.00 88 1019.4
20190218100306 21 286 4.0 8.0 0.00 0.00 0.00 88 1019.3
20190218095806 21 311 4.0 9.0 0.00 0.00 0.00 88 1019.2
20190218095305 21 342 3.0 9.0 0.00 0.00 0.00 88 1019.2
20190218094805 21 279 3.0 9.0 0.00 0.00 0.00 88 1019.1
20190218094306 21 284 3.0 8.0 0.00 0.00 0.00 88 1019.1
20190218093805 21 318 3.0 8.0 0.00 0.00 0.00 88 1019.0
20190218093305 21 340 4.0 8.0 0.00 0.00 0.00 88 1018.9
20190218092806 21 333 4.0 8.0 0.00 0.00 0.00 89 1018.9
20190218092305 21 294 4.0 8.0 0.00 0.00 0.00 88 1018.8
20190218091805 21 274 4.0 8.0 0.00 0.00 0.00 89 1018.8